DW9954 Weather Reports


Display with metric or nautical units.
time (UTC)temp
F
wind
direction
speed
MPH
gust
MPH
rain 1hr
in
rain 24hr
in
rain mn
in
humidity
%
barometer
mb
20260506101502 0 13 4.0 12.0 0.00 0.00 0.00 1009.4
20260506100100 0 16 3.0 10.0 0.00 0.00 0.00 1009.4
20260506094559 0 14 4.0 14.0 0.00 0.00 0.00 1009.3
20260506093058 0 49 8.0 19.0 0.00 0.00 0.00 1009.4
20260506091548 0 24 3.0 9.0 0.00 0.00 0.00 1009.2
20260506090054 0 350 4.0 9.0 0.00 0.00 0.00 1009.1
20260506084545 0 44 2.0 8.0 0.00 0.00 0.00 1009.1
20260506083038 0 36 3.0 11.0 0.00 0.00 0.00 1009.1
20260506081537 0 43 3.0 13.0 0.00 0.00 0.00 1008.9
20260506073021 0 13 3.0 6.0 0.00 0.00 0.00 1008.7
20260506071519 0 34 4.0 8.0 0.00 0.00 0.00 1008.8
20260506061601 0 360 3.0 8.0 0.00 0.00 0.00 1008.5
20260506043033 0 28 4.0 9.0 0.00 0.00 0.00 1008.3
20260506041539 0 23 2.0 7.0 0.00 0.00 0.00 1008.3
20260506040024 0 11 2.0 6.0 0.00 0.00 0.00 1008.3
20260506033018 0 24 1.0 8.0 0.00 0.00 0.00 1008.4
20260506031513 0 33 3.0 8.0 0.00 0.00 0.00 1008.5
20260506030009 0 35 2.0 7.0 0.00 0.00 0.00 1008.7
20260506023002 0 20 1.0 6.0 0.00 0.00 0.00 1008.8
20260506021557 0 30 1.0 7.0 0.00 0.00 0.00 1008.8
20260506020056 0 27 2.0 6.0 0.00 0.00 0.00 1008.9
20260506013054 0 19 2.0 9.0 0.00 0.00 0.00 1009.1
20260506011546 0 28 1.0 11.0 0.00 0.00 0.00 1009.1
20260506010038 0 26 3.0 8.0 0.00 0.00 0.00 1009.3
20260506003031 0 48 2.0 8.0 0.00 0.00 0.00 1009.4
20260506001528 0 26 2.0 9.0 0.00 0.00 0.00 1009.7
20260506000022 0 15 1.0 6.0 0.00 0.00 0.00 1009.9
20260505233024 0 31 2.0 6.0 0.00 0.00 0.00 1009.9
20260505231513 0 26 3.0 7.0 0.00 0.00 0.00 1010.0
20260505230007 0 21 4.0 8.0 0.00 0.00 0.00 1010.1
20260505223059 0 345 3.0 7.0 0.00 0.00 0.00 1010.2
20260505221602 0 360 1.0 9.0 0.00 0.00 0.00 1010.2
20260505220056 0 52 2.0 11.0 0.00 0.00 0.00 1010.4
20260505213043 0 10 4.0 9.0 0.00 0.00 0.00 1010.5
20260505211542 0 27 3.0 8.0 0.00 0.00 0.00 1010.6
20260505210036 0 16 2.0 9.0 0.00 0.00 0.00 1010.7
20260505203027 0 34 3.0 7.0 0.00 0.00 0.00 1010.9
20260505201523 0 12 3.0 7.0 0.00 0.00 0.00 1010.9
20260505200031 0 18 3.0 8.0 0.00 0.00 0.00 1010.7
20260505193015 0 360 2.0 9.0 0.00 0.00 0.00 1010.7
20260505191521 0 5 4.0 11.0 0.00 0.00 0.00 1010.6
20260505190004 0 355 3.0 8.0 0.00 0.00 0.00 1010.4
20260505184700 0 17 3.0 10.0 0.00 0.00 0.00 1010.4
20260505183056 0 38 2.0 9.0 0.00 0.00 0.00 1010.4
20260505181557 0 16 3.0 10.0 0.00 0.00 0.00 1010.3
20260505180047 0 24 3.0 9.0 0.00 0.00 0.00 1010.3
20260505174645 0 17 3.0 8.0 0.00 0.00 0.00 1010.4
20260505173040 0 21 3.0 6.0 0.00 0.00 0.00 1010.5
20260505171535 0 24 2.0 11.0 0.00 0.00 0.00 1010.5
20260505170033 0 5 2.0 7.0 0.00 0.00 0.00 1010.5
20260505163025 0 18 3.0 7.0 0.00 0.00 0.00 1010.6
20260505161536 0 38 3.0 8.0 0.00 0.00 0.00 1010.5
20260505153013 0 25 4.0 8.0 0.00 0.00 0.00 1010.8
20260505151504 0 350 3.0 8.0 0.00 0.00 0.00 1010.8
20260505150109 0 28 2.0 6.0 0.00 0.00 0.00 1010.8
20260505124526 0 5 4.0 9.0 0.00 0.00 0.00 1011.6
20260505123024 0 348 3.0 9.0 0.00 0.00 0.00 1011.5
20260505121531 0 20 5.0 9.0 0.00 0.00 0.00 1011.7
20260505120015 0 355 3.0 8.0 0.00 0.00 0.00 1011.5
20260505114511 0 11 3.0 8.0 0.00 0.00 0.00 1011.5
20260505113006 0 11 0.0 8.0 0.00 0.00 0.00 1011.6
20260505111503 0 49 0.0 5.0 0.00 0.00 0.00 1011.8
20260505110123 0 360 3.0 8.0 0.00 0.00 0.00 1011.9